Time,TemperatureF,DewpointF,PressureIn,WindDirection,WindDirectionDegrees,WindSpeedMPH,WindSpeedGustMPH,Humidity,HourlyPrecipIn,Conditions,Clouds,dailyrainin,SolarRadiationWatts/m^2,SoftwareType,DateUTC
2013-01-20 00:04:00,37.0,21.0,30.02,SSW,193,4.0,12.0,53,0.00,,,0.00,0.000000,,2013-01-20 05:04:00,
2013-01-20 00:10:00,36.0,18.0,30.01,SSW,198,4.0,9.0,47,0.00,,,0.00,0.000000,,2013-01-20 05:10:00,
2013-01-20 00:33:00,36.0,18.0,30.01,SSW,198,4.0,9.0,47,0.00,,,0.00,0.000000,,2013-01-20 05:33:00,
2013-01-20 00:43:00,36.0,18.0,30.01,SSW,198,4.0,9.0,47,0.00,,,0.00,0.000000,,2013-01-20 05:43:00,
2013-01-20 00:53:00,36.0,18.0,30.01,SSW,198,4.0,9.0,47,0.00,,,0.00,0.000000,,2013-01-20 05:53:00,
2013-01-20 01:02:00,36.0,18.0,30.01,SSW,198,4.0,9.0,47,0.00,,,0.00,0.000000,,2013-01-20 06:02:00,
2013-01-20 01:10:00,37.0,19.0,29.99,SW,214,5.0,15.0,47,0.00,,,0.00,0.000000,,2013-01-20 06:10:00,
2013-01-20 01:33:00,37.0,19.0,29.99,SW,214,5.0,15.0,47,0.00,,,0.00,0.000000,,2013-01-20 06:33:00,
2013-01-20 01:43:00,37.0,19.0,29.99,SW,214,5.0,15.0,47,0.00,,,0.00,0.000000,,2013-01-20 06:43:00,
2013-01-20 01:53:00,37.0,19.0,29.99,SW,214,5.0,15.0,47,0.00,,,0.00,0.000000,,2013-01-20 06:53:00,
2013-01-20 02:02:00,37.0,19.0,29.99,SW,214,5.0,15.0,47,0.00,,,0.00,0.000000,,2013-01-20 07:02:00,
2013-01-20 02:10:00,38.0,11.0,29.98,NNE,12,1.0,14.0,33,0.00,,,0.00,0.000000,,2013-01-20 07:10:00,
2013-01-20 02:32:00,38.0,11.0,29.98,NNE,12,1.0,14.0,33,0.00,,,0.00,0.000000,,2013-01-20 07:32:00,
2013-01-20 02:42:00,38.0,11.0,29.98,NNE,12,1.0,14.0,33,0.00,,,0.00,0.000000,,2013-01-20 07:42:00,
2013-01-20 02:52:00,38.0,11.0,29.98,NNE,12,1.0,14.0,33,0.00,,,0.00,0.000000,,2013-01-20 07:52:00,
2013-01-20 03:02:00,38.0,11.0,29.98,NNE,12,1.0,14.0,33,0.00,,,0.00,0.000000,,2013-01-20 08:02:00,
2013-01-20 03:10:00,35.0,14.0,29.98,SE,134,1.0,3.0,41,0.00,,,0.00,0.000000,,2013-01-20 08:10:00,
2013-01-20 03:42:00,35.0,14.0,29.98,SE,134,1.0,3.0,41,0.00,,,0.00,0.000000,,2013-01-20 08:42:00,
2013-01-20 03:53:00,35.0,14.0,29.98,SE,134,1.0,3.0,41,0.00,,,0.00,0.000000,,2013-01-20 08:53:00,
2013-01-20 04:02:00,35.0,14.0,29.98,SE,134,1.0,3.0,41,0.00,,,0.00,0.000000,,2013-01-20 09:02:00,
2013-01-20 04:10:00,32.0,22.0,29.97,WSW,248,1.0,3.0,66,0.00,,,0.00,0.000000,,2013-01-20 09:10:00,
2013-01-20 04:33:00,32.0,22.0,29.97,WSW,248,1.0,3.0,66,0.00,,,0.00,0.000000,,2013-01-20 09:33:00,
2013-01-20 04:42:00,32.0,22.0,29.97,WSW,248,1.0,3.0,66,0.00,,,0.00,0.000000,,2013-01-20 09:42:00,
2013-01-20 04:53:00,32.0,22.0,29.97,WSW,248,1.0,3.0,66,0.00,,,0.00,0.000000,,2013-01-20 09:53:00,
2013-01-20 05:03:00,32.0,22.0,29.97,WSW,248,1.0,3.0,66,0.00,,,0.00,0.000000,,2013-01-20 10:03:00,
2013-01-20 05:10:00,31.0,19.0,29.96,NW,325,0.0,2.0,61,0.00,,,0.00,0.000000,,2013-01-20 10:10:00,
2013-01-20 05:33:00,31.0,19.0,29.96,NW,325,0.0,2.0,61,0.00,,,0.00,0.000000,,2013-01-20 10:33:00,
2013-01-20 05:42:00,31.0,19.0,29.96,NW,325,0.0,2.0,61,0.00,,,0.00,0.000000,,2013-01-20 10:42:00,
2013-01-20 05:53:00,31.0,19.0,29.96,NW,325,0.0,2.0,61,0.00,,,0.00,0.000000,,2013-01-20 10:53:00,
2013-01-20 06:03:00,31.0,19.0,29.96,NW,325,0.0,2.0,61,0.00,,,0.00,0.000000,,2013-01-20 11:03:00,
2013-01-20 06:10:00,32.0,17.0,29.96,North,2,1.0,4.0,53,0.00,,,0.00,0.000000,,2013-01-20 11:10:00,
2013-01-20 06:33:00,32.0,17.0,29.96,North,2,1.0,4.0,53,0.00,,,0.00,0.000000,,2013-01-20 11:33:00,
2013-01-20 06:43:00,32.0,17.0,29.96,North,2,1.0,4.0,53,0.00,,,0.00,0.000000,,2013-01-20 11:43:00,
2013-01-20 06:54:00,32.0,17.0,29.96,North,2,1.0,4.0,53,0.00,,,0.00,0.000000,,2013-01-20 11:54:00,
2013-01-20 07:03:00,32.0,17.0,29.96,North,2,1.0,4.0,53,0.00,,,0.00,0.000000,,2013-01-20 12:03:00,
2013-01-20 07:10:00,32.0,21.0,29.96,SSW,210,1.0,7.0,64,0.00,,,0.00,0.000000,,2013-01-20 12:10:00,
2013-01-20 07:33:00,32.0,21.0,29.96,SSW,210,1.0,7.0,64,0.00,,,0.00,0.000000,,2013-01-20 12:33:00,
2013-01-20 07:43:00,32.0,21.0,29.96,SSW,210,1.0,7.0,64,0.00,,,0.00,0.000000,,2013-01-20 12:43:00,
2013-01-20 07:53:00,32.0,21.0,29.96,SSW,210,1.0,7.0,64,0.00,,,0.00,0.000000,,2013-01-20 12:53:00,
2013-01-20 08:03:00,32.0,21.0,29.96,SSW,210,1.0,7.0,64,0.00,,,0.00,0.000000,,2013-01-20 13:03:00,
2013-01-20 08:10:00,31.0,22.0,29.99,WNW,286,1.0,2.0,70,0.00,,,0.00,4.000000,,2013-01-20 13:10:00,
2013-01-20 08:33:00,31.0,22.0,29.99,WNW,286,1.0,2.0,70,0.00,,,0.00,4.000000,,2013-01-20 13:33:00,
2013-01-20 08:43:00,31.0,22.0,29.99,WNW,286,1.0,2.0,70,0.00,,,0.00,4.000000,,2013-01-20 13:43:00,
2013-01-20 08:53:00,31.0,22.0,29.99,WNW,286,1.0,2.0,70,0.00,,,0.00,4.000000,,2013-01-20 13:53:00,
2013-01-20 09:03:00,31.0,22.0,29.99,WNW,286,1.0,2.0,70,0.00,,,0.00,4.000000,,2013-01-20 14:03:00,
2013-01-20 09:10:00,39.0,24.0,29.99,North,0,1.0,4.0,54,0.00,,,0.00,70.000000,,2013-01-20 14:10:00,
2013-01-20 09:33:00,39.0,24.0,29.99,North,0,1.0,4.0,54,0.00,,,0.00,70.000000,,2013-01-20 14:33:00,
2013-01-20 09:43:00,39.0,24.0,29.99,North,0,1.0,4.0,54,0.00,,,0.00,70.000000,,2013-01-20 14:43:00,
2013-01-20 09:53:00,39.0,24.0,29.99,North,0,1.0,4.0,54,0.00,,,0.00,70.000000,,2013-01-20 14:53:00,
2013-01-20 10:03:00,39.0,24.0,29.99,North,0,1.0,4.0,54,0.00,,,0.00,70.000000,,2013-01-20 15:03:00,
2013-01-20 10:10:00,52.0,26.0,29.99,NNE,32,3.0,7.0,36,0.00,,,0.00,328.000000,,2013-01-20 15:10:00,
2013-01-20 10:33:00,52.0,26.0,29.99,NNE,32,3.0,7.0,36,0.00,,,0.00,328.000000,,2013-01-20 15:33:00,
2013-01-20 10:43:00,52.0,26.0,29.99,NNE,32,3.0,7.0,36,0.00,,,0.00,328.000000,,2013-01-20 15:43:00,
2013-01-20 10:53:00,52.0,26.0,29.99,NNE,32,3.0,7.0,36,0.00,,,0.00,328.000000,,2013-01-20 15:53:00,
2013-01-20 11:03:00,52.0,26.0,29.99,NNE,32,3.0,7.0,36,0.00,,,0.00,328.000000,,2013-01-20 16:03:00,
2013-01-20 11:10:00,52.0,27.0,29.99,NE,39,3.0,7.0,37,0.00,,,0.00,473.000000,,2013-01-20 16:10:00,
2013-01-20 11:33:00,52.0,27.0,29.99,NE,39,3.0,7.0,37,0.00,,,0.00,473.000000,,2013-01-20 16:33:00,
2013-01-20 11:43:00,52.0,27.0,29.99,NE,39,3.0,7.0,37,0.00,,,0.00,473.000000,,2013-01-20 16:43:00,
2013-01-20 11:53:00,52.0,27.0,29.99,NE,39,3.0,7.0,37,0.00,,,0.00,473.000000,,2013-01-20 16:53:00,
2013-01-20 12:03:00,52.0,27.0,29.99,NE,39,3.0,7.0,37,0.00,,,0.00,473.000000,,2013-01-20 17:03:00,
2013-01-20 12:10:00,58.0,28.0,29.96,SE,125,2.0,7.0,31,0.00,,,0.00,567.000000,,2013-01-20 17:10:00,
2013-01-20 12:33:00,58.0,28.0,29.96,SE,125,2.0,7.0,31,0.00,,,0.00,567.000000,,2013-01-20 17:33:00,
2013-01-20 12:43:00,58.0,28.0,29.96,SE,125,2.0,7.0,31,0.00,,,0.00,567.000000,,2013-01-20 17:43:00,
2013-01-20 12:53:00,58.0,28.0,29.96,SE,125,2.0,7.0,31,0.00,,,0.00,567.000000,,2013-01-20 17:53:00,
2013-01-20 13:03:00,58.0,28.0,29.96,SE,125,2.0,7.0,31,0.00,,,0.00,567.000000,,2013-01-20 18:03:00,
2013-01-20 13:10:00,59.0,25.0,29.94,East,97,4.0,10.0,27,0.00,,,0.00,605.000000,,2013-01-20 18:10:00,
2013-01-20 13:33:00,59.0,25.0,29.94,East,97,4.0,10.0,27,0.00,,,0.00,605.000000,,2013-01-20 18:33:00,
2013-01-20 13:43:00,59.0,25.0,29.94,East,97,4.0,10.0,27,0.00,,,0.00,605.000000,,2013-01-20 18:43:00,
2013-01-20 13:53:00,59.0,25.0,29.94,East,97,4.0,10.0,27,0.00,,,0.00,605.000000,,2013-01-20 18:53:00,
2013-01-20 14:03:00,59.0,25.0,29.94,East,97,4.0,10.0,27,0.00,,,0.00,605.000000,,2013-01-20 19:03:00,
2013-01-20 14:10:00,64.0,26.0,29.92,South,188,2.0,8.0,24,0.00,,,0.00,578.000000,,2013-01-20 19:10:00,
2013-01-20 14:33:00,64.0,26.0,29.92,South,188,2.0,8.0,24,0.00,,,0.00,578.000000,,2013-01-20 19:33:00,
2013-01-20 14:43:00,64.0,26.0,29.92,South,188,2.0,8.0,24,0.00,,,0.00,578.000000,,2013-01-20 19:43:00,
2013-01-20 14:53:00,64.0,26.0,29.92,South,188,2.0,8.0,24,0.00,,,0.00,578.000000,,2013-01-20 19:53:00,
2013-01-20 15:03:00,64.0,26.0,29.92,South,188,2.0,8.0,24,0.00,,,0.00,578.000000,,2013-01-20 20:03:00,
2013-01-20 15:10:00,61.0,29.0,29.91,NNE,24,4.0,12.0,29,0.00,,,0.00,490.000000,,2013-01-20 20:10:00,
2013-01-20 15:42:00,61.0,29.0,29.91,NNE,24,4.0,12.0,29,0.00,,,0.00,490.000000,,2013-01-20 20:42:00,
2013-01-20 15:54:00,61.0,29.0,29.91,NNE,24,4.0,12.0,29,0.00,,,0.00,490.000000,,2013-01-20 20:54:00,
2013-01-20 16:04:00,61.0,29.0,29.91,NNE,24,4.0,12.0,29,0.00,,,0.00,490.000000,,2013-01-20 21:04:00,
2013-01-20 16:10:00,61.0,29.0,29.91,NNE,28,3.0,12.0,30,0.00,,,0.00,351.000000,,2013-01-20 21:10:00,
2013-01-20 16:33:00,61.0,29.0,29.91,NNE,28,3.0,12.0,30,0.00,,,0.00,351.000000,,2013-01-20 21:33:00,
2013-01-20 16:43:00,61.0,29.0,29.91,NNE,28,3.0,12.0,30,0.00,,,0.00,351.000000,,2013-01-20 21:43:00,
2013-01-20 16:53:00,61.0,29.0,29.91,NNE,28,3.0,12.0,30,0.00,,,0.00,351.000000,,2013-01-20 21:53:00,
2013-01-20 17:03:00,61.0,29.0,29.91,NNE,28,3.0,12.0,30,0.00,,,0.00,351.000000,,2013-01-20 22:03:00,
2013-01-20 17:10:00,50.0,25.0,29.94,NE,40,4.0,12.0,38,0.00,,,0.00,41.000000,,2013-01-20 22:10:00,
2013-01-20 17:33:00,50.0,25.0,29.94,NE,40,4.0,12.0,38,0.00,,,0.00,41.000000,,2013-01-20 22:33:00,
2013-01-20 17:43:00,50.0,25.0,29.94,NE,40,4.0,12.0,38,0.00,,,0.00,41.000000,,2013-01-20 22:43:00,
2013-01-20 17:53:00,50.0,25.0,29.94,NE,40,4.0,12.0,38,0.00,,,0.00,41.000000,,2013-01-20 22:53:00,
2013-01-20 18:03:00,50.0,25.0,29.94,NE,40,4.0,12.0,38,0.00,,,0.00,41.000000,,2013-01-20 23:03:00,
2013-01-20 18:10:00,46.0,24.0,29.95,NNE,26,5.0,13.0,41,0.00,,,0.00,7.000000,,2013-01-20 23:10:00,
2013-01-20 18:33:00,46.0,24.0,29.95,NNE,26,5.0,13.0,41,0.00,,,0.00,7.000000,,2013-01-20 23:33:00,
2013-01-20 18:43:00,46.0,24.0,29.95,NNE,26,5.0,13.0,41,0.00,,,0.00,7.000000,,2013-01-20 23:43:00,
2013-01-20 18:53:00,46.0,24.0,29.95,NNE,26,5.0,13.0,41,0.00,,,0.00,7.000000,,2013-01-20 23:53:00,
2013-01-20 19:03:00,46.0,24.0,29.95,NNE,26,5.0,13.0,41,0.00,,,0.00,7.000000,,2013-01-21 00:03:00,
2013-01-20 19:10:00,44.0,25.0,29.95,NE,54,2.0,15.0,46,0.00,,,0.00,0.000000,,2013-01-21 00:10:00,
2013-01-20 19:33:00,44.0,25.0,29.95,NE,54,2.0,15.0,46,0.00,,,0.00,0.000000,,2013-01-21 00:33:00,
2013-01-20 19:43:00,44.0,25.0,29.95,NE,54,2.0,15.0,46,0.00,,,0.00,0.000000,,2013-01-21 00:43:00,
2013-01-20 19:54:00,44.0,25.0,29.95,NE,54,2.0,15.0,46,0.00,,,0.00,0.000000,,2013-01-21 00:54:00,
2013-01-20 20:03:00,44.0,25.0,29.95,NE,54,2.0,15.0,46,0.00,,,0.00,0.000000,,2013-01-21 01:03:00,
2013-01-20 20:10:00,41.0,27.0,29.97,NNE,18,3.0,11.0,58,0.00,,,0.00,0.000000,,2013-01-21 01:10:00,
2013-01-20 20:33:00,41.0,27.0,29.97,NNE,18,3.0,11.0,58,0.00,,,0.00,0.000000,,2013-01-21 01:33:00,
2013-01-20 20:43:00,41.0,27.0,29.97,NNE,18,3.0,11.0,58,0.00,,,0.00,0.000000,,2013-01-21 01:43:00,
2013-01-20 20:53:00,41.0,27.0,29.97,NNE,18,3.0,11.0,58,0.00,,,0.00,0.000000,,2013-01-21 01:53:00,
2013-01-20 21:03:00,41.0,27.0,29.97,NNE,18,3.0,11.0,58,0.00,,,0.00,0.000000,,2013-01-21 02:03:00,
2013-01-20 21:10:00,41.0,26.0,29.97,NE,39,4.0,10.0,55,0.00,,,0.00,0.000000,,2013-01-21 02:10:00,
2013-01-20 21:33:00,41.0,26.0,29.97,NE,39,4.0,10.0,55,0.00,,,0.00,0.000000,,2013-01-21 02:33:00,
2013-01-20 21:43:00,41.0,26.0,29.97,NE,39,4.0,10.0,55,0.00,,,0.00,0.000000,,2013-01-21 02:43:00,
2013-01-20 21:53:00,41.0,26.0,29.97,NE,39,4.0,10.0,55,0.00,,,0.00,0.000000,,2013-01-21 02:53:00,
2013-01-20 22:03:00,41.0,26.0,29.97,NE,39,4.0,10.0,55,0.00,,,0.00,0.000000,,2013-01-21 03:03:00,
2013-01-20 22:10:00,37.0,27.0,29.97,WNW,285,2.0,8.0,68,0.00,,,0.00,0.000000,,2013-01-21 03:10:00,
2013-01-20 22:33:00,37.0,27.0,29.97,WNW,285,2.0,8.0,68,0.00,,,0.00,0.000000,,2013-01-21 03:33:00,
2013-01-20 22:43:00,37.0,27.0,29.97,WNW,285,2.0,8.0,68,0.00,,,0.00,0.000000,,2013-01-21 03:43:00,
2013-01-20 22:54:00,37.0,27.0,29.97,WNW,285,2.0,8.0,68,0.00,,,0.00,0.000000,,2013-01-21 03:54:00,
2013-01-20 23:03:00,37.0,27.0,29.97,WNW,285,2.0,8.0,68,0.00,,,0.00,0.000000,,2013-01-21 04:03:00,
2013-01-20 23:10:00,34.0,27.0,29.96,South,177,1.0,8.0,74,0.00,,,0.00,0.000000,,2013-01-21 04:10:00,
2013-01-20 23:33:00,34.0,27.0,29.96,South,177,1.0,8.0,74,0.00,,,0.00,0.000000,,2013-01-21 04:33:00,
2013-01-20 23:43:00,34.0,27.0,29.96,South,177,1.0,8.0,74,0.00,,,0.00,0.000000,,2013-01-21 04:43:00,
2013-01-20 23:53:00,34.0,27.0,29.96,South,177,1.0,8.0,74,0.00,,,0.00,0.000000,,2013-01-21 04:53:00,